This is the latest recevied weather packets stored in our database for station/object DL4PY-13. If no packets are shown the sender has not sent any weather packets the latest 10 day(s).
| Time | Temp. | Humidity | Pressure | Rain* | Wind** | Luminosity | Snow |
|---|---|---|---|---|---|---|---|
| 1778244489 | 16.67° C | 49% | 1018.6 hPa | 0 mm | - | - | - |
| 1778244448 | 16.67° C | 48% | 1018.6 hPa | 0 mm | - | - | - |
| 1778244147 | 16.67° C | 49% | 1018.6 hPa | 0 mm | - | - | - |
| 1778243851 | 16.67° C | 48% | 1018.7 hPa | 0 mm | - | - | - |
| 1778243589 | 16.11° C | 48% | 1018.7 hPa | 0 mm | - | - | - |
| 1778243548 | 16.11° C | 47% | 1018.7 hPa | 0 mm | - | - | - |
| 1778243249 | 16.11° C | 49% | 1018.8 hPa | 0 mm | - | - | - |
| 1778242690 | 15.56° C | 49% | 1018.7 hPa | 0 mm | - | - | - |
| 1778242647 | 15.56° C | 48% | 1018.7 hPa | 0 mm | - | - | - |
| 1778242347 | 15.56° C | 48% | 1018.7 hPa | 0 mm | - | - | - |
| 1778242050 | 15.56° C | 49% | 1018.7 hPa | 0 mm | - | - | - |
| 1778241790 | 15.56° C | 51% | 1018.8 hPa | 0 mm | - | - | - |
| 1778241748 | 15° C | 49% | 1018.7 hPa | 0 mm | - | - | - |
| 1778241447 | 15.56° C | 49% | 1018.7 hPa | 0 mm | - | - | - |
| 1778241150 | 15.56° C | 52% | 1018.6 hPa | 0 mm | - | - | - |
| 1778240889 | 15° C | 57% | 1018.6 hPa | 0 mm | - | - | - |
| 1778240849 | 15° C | 55% | 1018.6 hPa | 0 mm | - | - | - |
| 1778240549 | 15.56° C | 54% | 1018.7 hPa | 0 mm | - | - | - |
| 1778240249 | 15.56° C | 53% | 1018.7 hPa | 0 mm | - | - | - |
| 1778239991 | 16.11° C | 49% | 1018.6 hPa | 0 mm | - | - | - |
| 1778239948 | 16.11° C | 48% | 1018.6 hPa | 0 mm | - | - | - |
| 1778239649 | 16.11° C | 46% | 1018.6 hPa | 0 mm | - | - | - |
| 1778239347 | 15.56° C | 47% | 1018.7 hPa | 0 mm | - | - | - |
| 1778239090 | 15.56° C | 47% | 1018.7 hPa | 0 mm | - | - | - |
| 1778239047 | 15.56° C | 48% | 1018.8 hPa | 0 mm | - | - | - |
* Rain latest hour (hover to see other rain measurements)
** Current wind speed in m/s (hover to see current wind gust speed)